Location: Waco, TX
(31.5480°N, 97.1670°W)
Time: 21:26:28
(UTC-05:00)

ISS - Pass Details

Date: 18 August 2018
Orbit: 402 x 409 km, 51.6° (Epoch: 18 August)

Event Time Altitude Azimuth Distance (km) Brightness Sun altitude
Rises 18:43:28 0° 302° (WNW) 2,313 1.1 17.0°
Reaches altitude 10° 18:45:44 10° 289° (WNW) 1,452 0.9 16.5°
Maximum altitude 18:48:30 26° 231° (SW) 839 -1.4 15.9°
Drops below altitude 10° 18:51:16 10° 173° (S) 1,448 -1.1 15.4°
Sets 18:53:32 0° 160° (SSE) 2,305 -0.3 14.9°
